�N����,����,�~����,�C��,���x,�C��,����,���ϕ���,�ő�u�ԕ���,�ő厞����,���˗�,�I�_���x,�n�����x,�ő啗���N��,DTYPE
"21/06/06","00:10",0.0,17.1,84.3,1003.4,302.2,1.2,2.9,335.5,0.00,14.5,130.0,"00:00:40",1
"21/06/06","00:20",0.0,17.0,84.6,1002.9,290.2,0.8,1.7,317.3,0.00,14.4,130.0,"00:16:00",1
"21/06/06","00:30",0.0,17.0,85.0,1002.4,303.0,0.7,1.9,337.2,0.00,14.5,130.0,"00:29:44",1
"21/06/06","00:40",0.0,17.0,85.3,1002.9,290.5,0.6,1.6,309.6,0.00,14.6,130.0,"00:30:02",1
"21/06/06","00:50",0.0,16.9,85.8,1003.1,307.2,1.1,2.1,318.5,0.00,14.5,130.0,"00:40:40",1
"21/06/06","01:00",0.0,17.0,86.2,1003.4,272.9,1.0,2.4,322.6,0.00,14.7,130.0,"00:57:36",1
"21/06/06","01:10",0.0,16.9,86.8,1003.1,283.1,1.0,1.9,336.2,0.00,14.7,130.0,"01:00:08",1
"21/06/06","01:20",0.0,16.9,87.0,1003.4,326.2,1.3,2.1,314.9,0.00,14.8,130.0,"01:14:56",1
"21/06/06","01:30",0.0,16.8,87.3,1003.1,315.3,1.1,2.2,337.1,0.00,14.7,130.0,"01:21:04",1
"21/06/06","01:40",0.0,16.8,87.4,1003.1,292.3,0.5,1.0,315.8,0.00,14.7,130.0,"01:35:36",1
"21/06/06","01:50",0.0,16.8,87.9,1002.6,302.0,1.3,2.4,333.3,0.00,14.8,130.0,"01:41:12",1
"21/06/06","02:00",0.0,16.7,88.2,1003.1,313.2,1.2,2.2,317.9,0.00,14.8,130.0,"01:54:24",1
"21/06/06","02:10",0.0,16.6,88.5,1003.4,297.5,0.8,1.4,310.2,0.00,14.7,130.0,"02:06:00",1
"21/06/06","02:20",0.0,16.7,88.6,1003.4,310.0,0.6,1.7,324.7,0.00,14.8,130.0,"02:12:00",1
"21/06/06","02:30",0.0,16.9,88.9,1002.6,300.9,0.6,1.1,86.6,0.00,15.1,130.0,"02:23:52",1
"21/06/06","02:40",0.0,16.8,88.8,1002.9,268.2,1.2,2.0,323.8,0.00,15.0,130.0,"02:38:56",1
"21/06/06","02:50",0.0,16.8,88.7,1003.4,327.2,2.1,2.8,336.3,0.00,15.0,130.0,"02:44:56",1
"21/06/06","03:00",0.0,16.8,88.7,1003.1,327.5,1.1,2.1,331.1,0.00,15.0,130.0,"02:50:08",1
"21/06/06","03:10",0.0,16.7,88.5,1002.4,318.3,1.1,1.6,332.3,0.00,14.8,130.0,"03:05:28",1
"21/06/06","03:20",0.0,16.7,88.5,1003.4,278.4,1.0,1.4,248.1,0.00,14.8,130.0,"03:17:04",1
"21/06/06","03:30",0.0,16.7,88.6,1003.6,281.9,1.0,1.3,283.4,0.00,14.8,130.0,"03:20:24",1
"21/06/06","03:40",0.0,16.6,88.5,1004.1,306.5,1.1,1.7,328.4,0.00,14.7,130.0,"03:32:40",1
"21/06/06","03:50",0.0,16.5,88.5,1004.1,305.8,0.8,1.2,311.9,0.00,14.6,130.0,"03:43:52",1
"21/06/06","04:00",0.0,16.5,88.6,1004.5,284.2,0.6,1.3,334.1,0.00,14.7,130.0,"03:51:28",1
"21/06/06","04:10",0.0,16.3,88.7,1004.3,286.9,1.0,1.4,312.0,0.00,14.5,130.0,"04:04:08",1
"21/06/06","04:20",0.0,16.4,89.1,1004.5,319.9,1.1,2.4,334.8,0.00,14.6,130.0,"04:10:02",1
"21/06/06","04:30",0.0,16.3,89.3,1004.3,298.2,1.0,2.5,335.6,0.00,14.6,130.0,"04:20:24",1
"21/06/06","04:40",0.0,16.2,89.5,1004.1,280.4,0.7,1.3,307.7,0.00,14.5,130.0,"04:33:04",1
"21/06/06","04:50",0.0,16.3,89.9,1004.1,287.5,0.8,2.7,325.5,0.00,14.7,130.0,"04:48:24",1
"21/06/06","05:00",0.0,16.3,90.2,1004.3,319.1,1.5,2.1,324.4,0.00,14.7,130.0,"04:50:08",1
"21/06/06","05:10",0.0,16.3,90.4,1004.3,300.7,1.1,1.7,325.7,0.00,14.8,130.0,"05:06:08",1
"21/06/06","05:20",0.0,16.4,90.6,1004.5,285.7,0.7,1.8,319.2,0.00,14.9,130.0,"05:13:20",1
"21/06/06","05:30",0.0,16.5,90.7,1004.5,316.1,0.2,0.5,304.6,0.00,15.0,130.0,"05:20:24",1
"21/06/06","05:40",0.0,16.5,90.9,1004.5,294.9,1.1,1.6,334.2,0.00,15.0,130.0,"05:37:04",1
"21/06/06","05:50",0.0,16.6,91.1,1004.8,327.7,1.2,1.9,334.5,0.00,15.2,130.0,"05:45:28",1
"21/06/06","06:00",0.0,16.7,91.2,1004.8,315.2,1.0,1.6,324.7,0.00,15.3,130.0,"05:57:12",1
"21/06/06","06:10",0.0,16.8,91.3,1005.0,317.6,1.1,1.4,322.6,0.00,15.4,130.0,"06:08:32",1
"21/06/06","06:20",0.0,16.8,91.4,1005.2,314.0,1.1,2.1,335.0,0.01,15.4,130.0,"06:13:44",1
"21/06/06","06:30",0.0,16.9,91.4,1005.0,300.9,0.7,1.3,313.4,0.00,15.5,130.0,"06:24:32",1
"21/06/06","06:40",0.0,17.0,91.5,1004.8,315.3,1.2,1.8,327.9,0.00,15.6,130.0,"06:39:28",1
"21/06/06","06:50",0.0,17.2,91.5,1005.0,293.2,0.8,1.6,333.0,0.01,15.8,130.0,"06:41:12",1
"21/06/06","07:00",0.0,17.3,91.5,1004.8,235.5,0.5,0.8,266.9,0.01,15.9,130.0,"06:53:12",1
"21/06/06","07:10",0.0,17.3,91.5,1004.5,285.7,0.6,1.1,278.0,0.01,15.9,130.0,"07:03:44",1
"21/06/06","07:20",0.0,17.2,91.5,1004.8,322.3,1.6,2.7,318.0,0.01,15.8,130.0,"07:16:32",1
"21/06/06","07:30",0.0,17.5,91.4,1004.3,269.9,0.3,1.1,326.3,0.03,16.1,130.0,"07:20:16",1
"21/06/06","07:40",0.0,17.7,91.2,1005.5,265.6,0.7,1.7,271.3,0.03,16.3,130.0,"07:38:40",1
"21/06/06","07:50",0.0,17.6,91.1,1004.8,320.7,1.0,1.6,346.6,0.01,16.2,130.0,"07:41:52",1
"21/06/06","08:00",0.0,17.8,91.1,1004.8,290.8,0.5,1.4,314.8,0.02,16.4,130.0,"07:50:24",1
"21/06/06","08:10",0.0,18.1,91.0,1005.0,239.5,0.5,1.0,307.6,0.04,16.6,130.0,"08:00:32",1
"21/06/06","08:20",0.0,18.4,90.8,1004.8,318.3,1.0,2.1,304.8,0.09,16.9,130.0,"08:10:02",1
"21/06/06","08:30",0.0,18.9,90.5,1005.2,320.2,1.7,3.4,338.7,0.14,17.4,130.0,"08:24:08",1
"21/06/06","08:40",0.0,19.2,89.6,1005.5,301.5,0.8,1.6,277.5,0.17,17.5,130.0,"08:38:40",1
"21/06/06","08:50",0.0,19.4,88.3,1005.2,315.6,1.2,2.2,323.0,0.13,17.5,130.0,"08:46:08",1
"21/06/06","09:00",0.0,20.1,86.5,1005.2,304.2,0.5,1.0,314.6,0.18,17.8,130.0,"08:59:52",1
"21/06/06","09:10",0.0,20.7,83.7,1005.2,327.1,0.5,1.4,292.1,0.22,17.9,130.0,"09:00:48",1
"21/06/06","09:20",0.0,21.1,80.7,1004.8,301.4,0.6,1.1,331.9,0.20,17.7,130.0,"09:11:36",1
"21/06/06","09:30",0.0,21.6,76.6,1004.5,300.1,0.6,1.7,234.2,0.25,17.4,130.0,"09:26:08",1
"21/06/06","09:40",0.0,22.0,73.3,1004.1,197.3,0.8,1.9,117.7,0.24,17.0,130.0,"09:39:12",1
"21/06/06","09:50",0.0,22.0,72.4,1004.1,202.9,0.8,1.8,225.2,0.25,16.9,130.0,"09:44:00",1
"21/06/06","10:00",0.0,22.5,69.8,1003.6,195.4,1.2,2.2,206.9,0.33,16.8,130.0,"09:53:12",1
"21/06/06","10:10",0.0,22.1,71.2,1004.3,195.1,1.3,2.8,192.9,0.21,16.7,130.0,"10:01:28",1
"21/06/06","10:20",0.0,22.1,70.6,1004.1,202.3,1.5,2.6,209.8,0.26,16.6,130.0,"10:14:00",1
"21/06/06","10:30",0.0,22.5,70.3,1003.8,161.7,1.2,2.5,170.7,0.33,16.9,130.0,"10:23:04",1
"21/06/06","10:40",0.0,23.6,70.6,1003.8,141.1,1.0,2.6,154.1,0.51,18.0,130.0,"10:39:04",1
"21/06/06","10:50",0.0,24.7,68.0,1003.8,200.1,0.8,2.2,174.3,0.56,18.4,130.0,"10:49:44",1
"21/06/06","11:00",0.0,25.2,66.2,1003.4,167.5,1.0,2.5,220.8,0.63,18.5,130.0,"10:51:44",1
"21/06/06","11:10",0.0,24.7,63.0,1003.4,150.2,1.2,2.9,193.8,0.43,17.2,130.0,"11:08:32",1
"21/06/06","11:20",0.0,24.4,66.7,1003.8,149.8,1.6,3.5,126.7,0.36,17.8,130.0,"11:13:04",1
"21/06/06","11:30",0.0,24.4,67.7,1003.4,157.6,1.5,2.8,174.6,0.38,18.1,130.0,"11:27:04",1
"21/06/06","11:40",0.0,24.7,68.2,1003.4,176.7,2.0,3.9,130.6,0.48,18.5,130.0,"11:33:20",1
"21/06/06","11:50",0.0,25.2,66.1,1003.6,183.6,2.0,5.4,207.0,0.59,18.5,130.0,"11:45:36",1
"21/06/06","12:00",0.0,24.8,65.1,1003.6,177.6,2.0,3.3,147.8,0.38,17.8,130.0,"11:51:44",1
"21/06/06","12:10",0.0,25.6,64.8,1003.4,194.9,1.8,3.9,188.4,0.55,18.5,130.0,"12:00:40",1
"21/06/06","12:20",0.0,25.6,61.6,1003.4,187.4,1.8,4.5,200.1,0.56,17.7,130.0,"12:18:56",1
"21/06/06","12:30",0.0,25.8,61.1,1003.6,212.0,1.2,3.2,206.5,0.41,17.8,130.0,"12:20:08",1
"21/06/06","12:40",0.0,26.3,62.0,1003.8,171.6,1.8,3.9,156.7,0.50,18.5,130.0,"12:32:48",1
"21/06/06","12:50",0.0,26.7,60.4,1003.8,168.9,2.1,4.9,139.0,0.64,18.4,130.0,"12:40:24",1
"21/06/06","13:00",0.0,26.1,60.6,1003.8,155.5,1.8,4.9,198.9,0.44,17.9,130.0,"12:50:08",1
"21/06/06","13:10",0.0,26.9,59.2,1004.1,142.5,1.2,4.2,141.3,0.59,18.3,130.0,"13:08:48",1
"21/06/06","13:20",0.0,26.8,58.9,1003.8,131.5,1.3,3.1,132.3,0.45,18.1,130.0,"13:18:08",1
"21/06/06","13:30",0.0,27.2,57.4,1003.8,133.3,1.2,2.4,199.2,0.60,18.1,130.0,"13:22:00",1
"21/06/06","13:40",0.0,28.0,56.0,1003.6,171.2,0.8,2.5,227.0,0.57,18.4,130.0,"13:37:44",1
"21/06/06","13:50",0.0,28.0,55.1,1004.1,191.1,1.0,2.7,180.7,0.51,18.2,130.0,"13:46:40",1
"21/06/06","14:00",0.0,28.2,52.9,1003.8,164.4,1.2,3.3,211.5,0.57,17.7,130.0,"13:50:32",1
"21/06/06","14:10",0.0,28.9,50.0,1004.3,201.9,0.8,2.7,28.1,0.55,17.5,130.0,"14:00:32",1
"21/06/06","14:20",0.0,29.6,50.4,1004.3,218.7,0.8,3.1,214.8,0.56,18.2,130.0,"14:13:52",1
"21/06/06","14:30",0.0,29.2,48.6,1003.8,212.8,1.1,2.7,217.6,0.49,17.3,130.0,"14:29:44",1
"21/06/06","14:40",0.0,29.1,49.2,1004.3,228.7,0.8,1.8,203.1,0.41,17.4,130.0,"14:30:24",1
"21/06/06","14:50",0.0,29.6,45.0,1004.3,248.7,1.1,2.5,194.6,0.51,16.5,130.0,"14:42:16",1
"21/06/06","15:00",0.0,29.1,44.4,1004.3,203.8,1.5,3.4,222.7,0.43,15.8,130.0,"14:58:08",1
"21/06/06","15:10",0.0,29.0,44.1,1003.8,223.7,1.2,2.9,186.7,0.37,15.6,130.0,"15:08:32",1
"21/06/06","15:20",0.0,28.7,45.7,1003.8,169.2,1.1,2.6,216.6,0.30,15.9,130.0,"15:10:32",1
"21/06/06","15:30",0.0,28.8,42.6,1003.8,161.3,1.2,2.5,147.8,0.34,14.9,130.0,"15:27:36",1
"21/06/06","15:40",0.0,28.9,45.4,1004.1,162.9,0.8,2.8,222.4,0.23,16.0,130.0,"15:37:20",1
"21/06/06","15:50",0.0,28.3,44.6,1003.8,133.5,1.1,2.1,144.0,0.20,15.1,130.0,"15:43:52",1
"21/06/06","16:00",0.0,28.2,42.6,1004.1,201.7,1.5,3.2,186.1,0.19,14.3,130.0,"15:56:56",1
"21/06/06","16:10",0.0,28.4,47.3,1003.4,230.4,1.0,3.6,201.4,0.20,16.1,130.0,"16:00:24",1
"21/06/06","16:20",0.0,28.4,44.7,1003.6,233.3,1.5,3.3,211.0,0.20,15.3,130.0,"16:11:52",1
"21/06/06","16:30",0.0,27.7,44.1,1003.4,204.7,1.2,2.6,188.9,0.12,14.4,130.0,"16:23:20",1
"21/06/06","16:40",0.0,27.7,47.9,1003.1,194.6,1.5,4.3,200.8,0.12,15.7,130.0,"16:32:08",1
"21/06/06","16:50",0.0,27.5,48.8,1003.1,191.9,2.0,3.7,212.6,0.14,15.8,130.0,"16:45:04",1
"21/06/06","17:00",0.0,27.6,48.5,1002.9,202.1,2.1,3.5,227.4,0.13,15.8,130.0,"16:55:28",1
"21/06/06","17:10",0.0,27.2,50.1,1002.6,216.0,1.3,3.2,191.8,0.08,16.0,130.0,"17:03:12",1
"21/06/06","17:20",0.0,27.0,50.6,1002.6,233.8,1.2,2.5,235.6,0.07,15.9,130.0,"17:17:28",1
"21/06/06","17:30",0.0,27.1,52.1,1002.6,232.3,1.0,2.2,219.5,0.08,16.5,130.0,"17:21:20",1
"21/06/06","17:40",0.0,26.7,53.8,1002.9,277.9,0.8,1.6,231.7,0.05,16.6,130.0,"17:30:16",1
"21/06/06","17:50",0.0,26.4,55.0,1002.9,312.6,0.7,1.6,348.0,0.03,16.7,130.0,"17:48:16",1
"21/06/06","18:00",0.0,26.0,56.2,1003.4,310.9,1.0,1.8,338.3,0.02,16.6,130.0,"17:55:12",1
"21/06/06","18:10",0.0,25.8,57.8,1003.8,334.3,1.6,2.5,338.8,0.02,16.9,130.0,"18:02:00",1
"21/06/06","18:20",0.0,25.6,58.3,1003.8,331.3,1.7,3.2,348.2,0.03,16.9,130.0,"18:18:56",1
"21/06/06","18:30",0.0,25.6,59.9,1004.1,322.8,1.6,4.0,335.0,0.02,17.3,130.0,"18:24:24",1
"21/06/06","18:40",0.0,25.3,62.2,1004.5,314.6,1.1,1.6,331.2,0.00,17.6,130.0,"18:33:44",1
"21/06/06","18:50",0.0,25.0,63.4,1004.8,332.2,1.1,1.9,340.7,0.00,17.6,130.0,"18:41:36",1
"21/06/06","19:00",0.0,24.5,65.4,1005.0,326.5,1.7,2.8,340.9,0.00,17.6,130.0,"18:53:52",1
"21/06/06","19:10",0.0,24.0,66.1,1005.0,311.4,1.1,1.9,338.3,0.00,17.3,130.0,"19:01:36",1
"21/06/06","19:20",0.0,23.8,66.5,1005.2,274.5,0.7,1.2,289.2,0.00,17.2,130.0,"19:16:08",1
"21/06/06","19:30",0.0,23.6,66.6,1005.5,259.2,0.5,1.3,302.0,0.00,17.1,130.0,"19:25:52",1
"21/06/06","19:40",0.0,23.5,67.2,1005.7,292.6,1.0,1.9,327.0,0.00,17.1,130.0,"19:37:12",1
"21/06/06","19:50",0.0,23.2,67.6,1005.7,303.0,1.0,2.2,333.3,0.00,16.9,130.0,"19:42:48",1
"21/06/06","20:00",0.0,23.1,68.2,1006.0,299.1,1.0,1.4,316.3,0.00,17.0,130.0,"19:54:40",1
"21/06/06","20:10",0.0,22.9,68.5,1006.2,305.0,1.0,1.4,312.2,0.00,16.8,130.0,"20:08:32",1
"21/06/06","20:20",0.0,23.0,69.6,1006.2,318.6,1.0,1.8,337.7,0.00,17.2,130.0,"20:16:40",1
"21/06/06","20:30",0.0,22.6,70.9,1006.7,327.6,1.0,1.6,337.3,0.00,17.1,130.0,"20:20:08",1
"21/06/06","20:40",0.0,22.4,73.1,1006.4,297.8,0.7,1.3,312.1,0.00,17.4,130.0,"20:32:00",1
"21/06/06","20:50",0.0,22.0,74.1,1006.4,314.9,0.3,1.3,334.0,0.00,17.2,130.0,"20:49:12",1
"21/06/06","21:00",0.0,22.1,76.2,1006.4,333.9,1.3,2.6,316.7,0.00,17.8,130.0,"20:54:32",1
"21/06/06","21:10",0.0,21.7,77.0,1006.7,319.8,1.5,2.1,339.2,0.00,17.5,130.0,"21:08:32",1
"21/06/06","21:20",0.0,21.5,77.3,1007.1,321.2,2.0,3.1,339.3,0.00,17.4,130.0,"21:10:56",1
"21/06/06","21:30",0.0,21.4,77.4,1006.7,274.9,0.7,1.7,331.5,0.00,17.3,130.0,"21:20:48",1
"21/06/06","21:40",0.0,21.4,77.5,1006.9,311.1,0.8,1.8,335.7,0.00,17.3,130.0,"21:38:00",1
"21/06/06","21:50",0.0,21.3,78.0,1007.4,294.6,1.2,1.6,316.7,0.00,17.4,130.0,"21:44:08",1
"21/06/06","22:00",0.0,21.2,78.4,1007.1,321.9,1.6,3.1,337.5,0.00,17.3,130.0,"21:54:40",1
"21/06/06","22:10",0.0,21.1,78.7,1007.6,319.9,1.2,1.8,326.2,0.00,17.3,130.0,"22:02:40",1
"21/06/06","22:20",0.0,20.9,78.9,1007.4,326.8,1.2,1.9,330.0,0.00,17.1,130.0,"22:16:08",1
"21/06/06","22:30",0.0,20.9,79.1,1007.6,333.4,1.1,1.8,338.5,0.00,17.2,130.0,"22:23:36",1
"21/06/06","22:40",0.0,20.5,79.7,1007.1,295.8,0.5,0.8,249.0,0.00,16.9,130.0,"22:33:28",1
"21/06/06","22:50",0.0,20.4,81.0,1007.1,306.0,1.2,1.9,321.4,0.00,17.1,130.0,"22:43:04",1
"21/06/06","23:00",0.0,20.3,81.5,1008.1,314.8,1.3,2.2,343.5,0.00,17.1,130.0,"22:56:40",1
"21/06/06","23:10",0.0,20.2,81.6,1007.6,307.7,1.2,2.1,333.9,0.00,17.0,130.0,"23:04:48",1
"21/06/06","23:20",0.0,20.3,81.7,1007.8,324.0,1.3,1.9,334.4,0.00,17.1,130.0,"23:10:16",1
"21/06/06","23:30",0.0,20.2,81.7,1008.1,289.4,1.0,1.4,277.0,0.00,17.0,130.0,"23:26:48",1
"21/06/06","23:40",0.0,20.1,81.6,1007.8,310.5,1.0,1.6,305.7,0.00,16.9,130.0,"23:38:16",1
"21/06/06","23:50",0.0,20.1,81.5,1007.8,309.6,1.1,2.6,336.2,0.00,16.9,130.0,"23:48:24",1
"21/06/06","24:00",0.0,20.1,81.4,1008.3,314.9,1.1,1.9,331.0,0.00,16.9,130.0,"23:50:40",1
